Back to catalog

STARLINK-31063

AliveCommunicationsVLEO
NORAD 58547·PAYLOAD·🇺🇸 United States

Launched Dec 8, 2023 from Vandenberg Space Force Base

Loading…

Next Passes (next 24 hours)

TLE

FreshSource: CelesTrak SupGP

Epoch: Sep 14, 2026, 22:40 UTC

1 58547C 23192S   26257.94493056  .00040144  00000+0  11860-2 0  2575
2 58547  53.1564 251.5184 0001367  93.0784 203.1339 15.34372430    13

Track STARLINK-31063 in real time with AllMySat

Download on the App Store